| time (UTC) | temp F | wind direction | speed MPH | gust MPH | rain 1hr in | rain 24hr in | rain mn in | humidity % | barometer mb |
| 20260509124543 | 56 | 0 | 0.0 | 2.0 | 0.00 | 0.01 | 0.01 | 98 | 1012.5 |
| 20260509123043 | 55 | 0 | 0.0 | 2.0 | 0.00 | 0.01 | 0.01 | 98 | 1012.4 |
| 20260509121545 | 53 | 0 | 0.0 | 0.0 | 0.00 | 0.01 | 0.01 | 97 | 1012.2 |
| 20260509120052 | 52 | 0 | 0.0 | 0.0 | 0.00 | 0.01 | 0.01 | 97 | 1012.1 |
| 20260509114550 | 51 | 0 | 0.0 | 0.0 | 0.00 | 0.01 | 0.01 | 97 | 1012.0 |
| 20260509113052 | 53 | 0 | 0.0 | 1.0 | 0.00 | 0.01 | 0.01 | 97 | 1011.9 |
| 20260509111552 | 53 | 0 | 0.0 | 1.0 | 0.00 | 0.01 | 0.01 | 97 | 1011.9 |
| 20260509110045 | 53 | 0 | 0.0 | 2.0 | 0.00 | 0.01 | 0.01 | 98 | 1011.8 |
| 20260509104546 | 52 | 252 | 0.0 | 1.0 | 0.00 | 0.01 | 0.01 | 97 | 1011.9 |
| 20260509103047 | 53 | 0 | 0.0 | 1.0 | 0.01 | 0.01 | 0.01 | 97 | 1011.8 |
| 20260509101552 | 54 | 0 | 0.0 | 1.0 | 0.01 | 0.01 | 0.01 | 97 | 1011.9 |
| 20260509100043 | 53 | 242 | 0.0 | 2.0 | 0.01 | 0.01 | 0.01 | 98 | 1011.8 |
| 20260509094545 | 53 | 255 | 1.0 | 1.0 | 0.01 | 0.01 | 0.01 | 98 | 1011.9 |
| 20260509093055 | 52 | 0 | 0.0 | 0.0 | 0.00 | 0.00 | 0.00 | 97 | 1011.9 |
| 20260509091543 | 52 | 0 | 0.0 | 0.0 | 0.00 | 0.00 | 0.00 | 97 | 1012.1 |
| 20260509090043 | 51 | 0 | 0.0 | 1.0 | 0.00 | 0.00 | 0.00 | 97 | 1012.1 |
| 20260509084552 | 51 | 0 | 0.0 | 0.0 | 0.00 | 0.00 | 0.00 | 96 | 1011.7 |
| 20260509083044 | 52 | 0 | 0.0 | 0.0 | 0.00 | 0.00 | 0.00 | 96 | 1011.7 |
| 20260509081547 | 52 | 0 | 0.0 | 1.0 | 0.00 | 0.00 | 0.00 | 96 | 1011.6 |
| 20260509080049 | 53 | 0 | 0.0 | 1.0 | 0.00 | 0.00 | 0.00 | 96 | 1011.6 |
| 20260509074545 | 52 | 0 | 0.0 | 1.0 | 0.00 | 0.00 | 0.00 | 96 | 1011.7 |
| 20260509073048 | 53 | 0 | 0.0 | 0.0 | 0.00 | 0.00 | 0.00 | 96 | 1011.8 |
| 20260509071548 | 52 | 0 | 0.0 | 0.0 | 0.00 | 0.00 | 0.00 | 95 | 1011.8 |
| 20260509070052 | 52 | 0 | 0.0 | 0.0 | 0.00 | 0.00 | 0.00 | 95 | 1012.0 |
| 20260509064546 | 53 | 0 | 0.0 | 0.0 | 0.00 | 0.00 | 0.00 | 94 | 1011.9 |
| 20260509063046 | 53 | 0 | 0.0 | 0.0 | 0.00 | 0.00 | 0.00 | 94 | 1011.8 |
| 20260509061541 | 54 | 0 | 0.0 | 0.0 | 0.00 | 0.00 | 0.00 | 94 | 1011.9 |
| 20260509060047 | 54 | 0 | 0.0 | 0.0 | 0.00 | 0.00 | 0.00 | 93 | 1011.9 |
| 20260509054551 | 55 | 0 | 0.0 | 0.0 | 0.00 | 0.00 | 0.00 | 93 | 1012.0 |
| 20260509053044 | 56 | 0 | 0.0 | 0.0 | 0.00 | 0.00 | 0.00 | 92 | 1012.0 |
| 20260509051547 | 56 | 214 | 1.0 | 2.0 | 0.00 | 0.00 | 0.00 | 92 | 1012.3 |
| 20260509050047 | 57 | 65 | 0.0 | 0.0 | 0.00 | 0.00 | 0.00 | 92 | 1012.2 |
| 20260509044543 | 58 | 0 | 0.0 | 0.0 | 0.00 | 0.00 | 0.00 | 91 | 1012.3 |
| 20260509043047 | 58 | 0 | 0.0 | 0.0 | 0.00 | 0.00 | 0.00 | 91 | 1012.2 |
| 20260509041547 | 59 | 0 | 0.0 | 0.0 | 0.00 | 0.00 | 0.00 | 90 | 1012.0 |
| 20260509040045 | 59 | 0 | 0.0 | 0.0 | 0.00 | 0.00 | 0.00 | 89 | 1012.0 |
| 20260509034546 | 60 | 0 | 0.0 | 1.0 | 0.00 | 0.00 | 0.00 | 88 | 1011.9 |
| 20260509033054 | 60 | 0 | 0.0 | 0.0 | 0.00 | 0.00 | 0.00 | 87 | 1011.8 |
| 20260509031548 | 61 | 120 | 0.0 | 1.0 | 0.00 | 0.00 | 0.00 | 85 | 1011.6 |
| 20260509030049 | 62 | 219 | 1.0 | 2.0 | 0.00 | 0.00 | 0.00 | 85 | 1011.6 |
| 20260509024546 | 62 | 342 | 2.0 | 5.0 | 0.00 | 0.00 | 0.00 | 84 | 1011.3 |
| 20260509023045 | 62 | 0 | 0.0 | 1.0 | 0.00 | 0.00 | 0.00 | 82 | 1011.1 |
| 20260509021547 | 63 | 0 | 0.0 | 3.0 | 0.00 | 0.00 | 0.00 | 80 | 1010.7 |
| 20260509020046 | 64 | 330 | 2.0 | 7.0 | 0.00 | 0.00 | 0.00 | 78 | 1010.3 |
| 20260509014547 | 65 | 326 | 5.0 | 8.0 | 0.00 | 0.00 | 0.00 | 75 | 1009.9 |
| 20260509013052 | 66 | 322 | 1.0 | 3.0 | 0.00 | 0.00 | 0.00 | 71 | 1009.3 |
| 20260509011553 | 66 | 340 | 1.0 | 3.0 | 0.00 | 0.00 | 0.00 | 71 | 1008.7 |
| 20260509010051 | 67 | 259 | 2.0 | 8.0 | 0.00 | 0.00 | 0.00 | 69 | 1008.6 |
| 20260509004549 | 67 | 208 | 3.0 | 11.0 | 0.00 | 0.00 | 0.00 | 70 | 1007.9 |
| 20260509003041 | 66 | 105 | 1.0 | 6.0 | 0.00 | 0.00 | 0.00 | 72 | 1007.7 |
| 20260509001544 | 67 | 219 | 3.0 | 6.0 | 0.00 | 0.00 | 0.00 | 70 | 1008.9 |
| 20260509000046 | 67 | 237 | 1.0 | 5.0 | 0.00 | 0.00 | 0.00 | 71 | 1008.4 |
| 20260508234542 | 67 | 264 | 2.0 | 6.0 | 0.00 | 0.00 | 0.00 | 73 | 1008.0 |
| 20260508233100 | 67 | 190 | 5.0 | 8.0 | 0.00 | 0.00 | 0.00 | 73 | 1007.5 |
| 20260508231551 | 67 | 159 | 0.0 | 5.0 | 0.00 | 0.00 | 0.00 | 72 | 1008.7 |
| 20260508230053 | 68 | 146 | 1.0 | 1.0 | 0.00 | 0.00 | 0.00 | 73 | 1009.0 |
| 20260508224543 | 69 | 0 | 0.0 | 5.0 | 0.00 | 0.00 | 0.00 | 71 | 1009.6 |
| 20260508223045 | 69 | 212 | 1.0 | 3.0 | 0.00 | 0.00 | 0.00 | 64 | 1010.0 |
| 20260508221551 | 70 | 0 | 1.0 | 5.0 | 0.00 | 0.00 | 0.00 | 60 | 1010.1 |
| 20260508220046 | 71 | 309 | 1.0 | 3.0 | 0.00 | 0.00 | 0.00 | 61 | 1010.0 |
| 20260508214546 | 72 | 283 | 1.0 | 7.0 | 0.00 | 0.00 | 0.00 | 55 | 1010.0 |
| 20260508213045 | 74 | 0 | 1.0 | 5.0 | 0.00 | 0.00 | 0.00 | 56 | 1009.9 |
| 20260508211543 | 74 | 239 | 3.0 | 9.0 | 0.00 | 0.00 | 0.00 | 53 | 1009.7 |
| 20260508210039 | 75 | 248 | 5.0 | 11.0 | 0.00 | 0.00 | 0.00 | 52 | 1009.6 |
| 20260508204552 | 76 | 221 | 2.0 | 9.0 | 0.00 | 0.00 | 0.00 | 54 | 1009.7 |
| 20260508203054 | 77 | 235 | 5.0 | 11.0 | 0.00 | 0.00 | 0.00 | 51 | 1009.7 |
| 20260508201543 | 77 | 258 | 4.0 | 12.0 | 0.00 | 0.00 | 0.00 | 50 | 1009.9 |
| 20260508200052 | 76 | 231 | 7.0 | 12.0 | 0.00 | 0.00 | 0.00 | 50 | 1010.1 |
| 20260508194547 | 76 | 255 | 4.0 | 14.0 | 0.00 | 0.00 | 0.00 | 51 | 1010.4 |
| 20260508193104 | 76 | 273 | 5.0 | 12.0 | 0.00 | 0.00 | 0.00 | 50 | 1010.7 |
| 20260508191554 | 76 | 221 | 5.0 | 14.0 | 0.00 | 0.00 | 0.00 | 51 | 1010.8 |
| 20260508190052 | 75 | 248 | 6.0 | 11.0 | 0.00 | 0.00 | 0.00 | 50 | 1011.0 |
| 20260508184551 | 75 | 247 | 4.0 | 12.0 | 0.00 | 0.00 | 0.00 | 50 | 1011.2 |
| 20260508183053 | 75 | 261 | 6.0 | 12.0 | 0.00 | 0.00 | 0.00 | 49 | 1011.6 |
| 20260508181551 | 74 | 210 | 6.0 | 13.0 | 0.00 | 0.00 | 0.00 | 52 | 1011.7 |
| 20260508180049 | 74 | 125 | 5.0 | 14.0 | 0.00 | 0.00 | 0.00 | 53 | 1011.8 |
| 20260508174553 | 73 | 247 | 6.0 | 14.0 | 0.00 | 0.00 | 0.00 | 55 | 1012.0 |
| 20260508173046 | 72 | 252 | 5.0 | 12.0 | 0.00 | 0.00 | 0.00 | 57 | 1012.2 |
| 20260508171547 | 72 | 133 | 5.0 | 12.0 | 0.00 | 0.00 | 0.00 | 61 | 1012.5 |
| 20260508170051 | 71 | 182 | 4.0 | 14.0 | 0.00 | 0.00 | 0.00 | 64 | 1012.8 |
| 20260508164554 | 71 | 264 | 6.0 | 16.0 | 0.00 | 0.00 | 0.00 | 60 | 1013.1 |
| 20260508163046 | 70 | 236 | 6.0 | 13.0 | 0.00 | 0.00 | 0.00 | 62 | 1013.3 |
| 20260508161547 | 69 | 257 | 6.0 | 12.0 | 0.00 | 0.00 | 0.00 | 65 | 1013.6 |
| 20260508160051 | 68 | 251 | 8.0 | 14.0 | 0.00 | 0.00 | 0.00 | 64 | 1013.8 |
| 20260508154551 | 68 | 198 | 6.0 | 15.0 | 0.00 | 0.00 | 0.00 | 65 | 1013.9 |
| 20260508153047 | 68 | 224 | 6.0 | 14.0 | 0.00 | 0.00 | 0.00 | 64 | 1014.1 |
| 20260508151554 | 67 | 232 | 4.0 | 11.0 | 0.00 | 0.00 | 0.00 | 67 | 1014.3 |
| 20260508150050 | 66 | 173 | 6.0 | 11.0 | 0.00 | 0.00 | 0.00 | 66 | 1014.5 |
| 20260508144552 | 66 | 315 | 4.0 | 11.0 | 0.00 | 0.00 | 0.00 | 68 | 1014.6 |
| 20260508143055 | 64 | 257 | 4.0 | 11.0 | 0.00 | 0.00 | 0.00 | 70 | 1014.9 |
| 20260508141548 | 63 | 255 | 8.0 | 21.0 | 0.00 | 0.00 | 0.00 | 72 | 1015.0 |
| 20260508140055 | 62 | 253 | 7.0 | 12.0 | 0.00 | 0.00 | 0.00 | 72 | 1015.0 |
| 20260508134553 | 62 | 219 | 7.0 | 15.0 | 0.00 | 0.00 | 0.00 | 73 | 1015.1 |
| 20260508133056 | 61 | 244 | 3.0 | 10.0 | 0.00 | 0.00 | 0.00 | 74 | 1015.2 |
| 20260508131552 | 60 | 262 | 5.0 | 14.0 | 0.00 | 0.00 | 0.00 | 73 | 1015.1 |
| 20260508130100 | 59 | 250 | 4.0 | 11.0 | 0.00 | 0.00 | 0.00 | 75 | 1015.1 |